Terminal Aerodrome Forecast
Issued by NWS Shreveport, LA

Home | Current Version | Previous Version | Text Only | Print | Product List | Glossary On
Versions: 1 2 3 4 5 6 7 8 9 10 11 12 13 14 15 16
000
FTUS44 KSHV 020538
TAFTXK
TAF
KTXK 020538Z 0206/0306 20010KT P6SM SCT250
     FM021100 21008KT P6SM FEW015 BKN250
     FM021400 22019G25KT P6SM SCT050 BKN250
     FM030000 21008KT P6SM SCT250=

USA.gov is the U.S. government's official web portal to all federal, state and local government web resources and services.